Meteo orario Abram-Tyube

Oggi, 14 Giugno, Lunedi

Tempo Temperatura Precipitazioni Vento Pressione Umidità
00:00 +19°C° 0 mm 2 m/s 752 mm Hg 88%
01:00 +19°C° 0 mm 2 m/s 752 mm Hg 88%
02:00 +18°C° 0 mm 2 m/s 752 mm Hg 89%
03:00 +18°C° 0 mm 3 m/s 752 mm Hg 91%
04:00 +19°C° 0 mm 3 m/s 752 mm Hg 88%
05:00 +19°C° 0 mm 3 m/s 753 mm Hg 85%
06:00 +20°C° 0 mm 3 m/s 753 mm Hg 82%
07:00 +21°C° 0 mm 3 m/s 753 mm Hg 75%
08:00 +24°C° 0 mm 2 m/s 752 mm Hg 68%
09:00 +25°C° 0 mm 2 m/s 752 mm Hg 62%
10:00 +27°C° 0 mm 2 m/s 752 mm Hg 57%
11:00 +28°C° 0 mm 2 m/s 752 mm Hg 52%
12:00 +29°C° 0 mm 3 m/s 752 mm Hg 47%
13:00 +30°C° 0 mm 2 m/s 752 mm Hg 44%
14:00 +30°C° 0 mm 2 m/s 751 mm Hg 42%
15:00 +31°C° 0 mm 2 m/s 751 mm Hg 39%
16:00 +31°C° 0 mm 2 m/s 751 mm Hg 40%
17:00 +31°C° 0 mm 3 m/s 751 mm Hg 40%
18:00 +31°C° 0 mm 3 m/s 751 mm Hg 41%
19:00 +29°C° 0 mm 4 m/s 751 mm Hg 46%
20:00 +28°C° 0 mm 4 m/s 751 mm Hg 51%
21:00 +26°C° 0 mm 5 m/s 751 mm Hg 56%
22:00 +25°C° 0 mm 4 m/s 751 mm Hg 59%
23:00 +25°C° 0 mm 4 m/s 751 mm Hg 62%

Domani, 15 Giugno, Martedi

Tempo Temperatura Precipitazioni Vento Pressione Umidità
00:00 +24°C° 0 mm 3 m/s 751 mm Hg 65%
01:00 +24°C° 0 mm 3 m/s 750 mm Hg 66%
02:00 +22°C° 0 mm 3 m/s 750 mm Hg 68%
03:00 +23°C° 0 mm 2 m/s 750 mm Hg 70%
04:00 +23°C° 0.3 mm 2 m/s 750 mm Hg 71%
05:00 +23°C° 0.3 mm 2 m/s 750 mm Hg 73%
06:00 +23°C° 0.3 mm 2 m/s 750 mm Hg 74%
07:00 +24°C° 0.4 mm 2 m/s 750 mm Hg 69%
08:00 +25°C° 0.4 mm 2 m/s 750 mm Hg 64%
09:00 +27°C° 0.4 mm 2 m/s 750 mm Hg 58%
10:00 +28°C° 0.3 mm 3 m/s 750 mm Hg 55%
11:00 +28°C° 0.3 mm 3 m/s 750 mm Hg 52%
12:00 +29°C° 0.3 mm 4 m/s 750 mm Hg 49%
13:00 +30°C° 0 mm 4 m/s 750 mm Hg 47%
14:00 +31°C° 0 mm 3 m/s 750 mm Hg 45%
15:00 +31°C° 0 mm 3 m/s 750 mm Hg 43%
16:00 +31°C° 0 mm 3 m/s 750 mm Hg 44%
17:00 +31°C° 0 mm 3 m/s 750 mm Hg 45%
18:00 +31°C° 0 mm 3 m/s 750 mm Hg 45%
19:00 +30°C° 0.1 mm 3 m/s 750 mm Hg 50%
20:00 +28°C° 0.1 mm 3 m/s 750 mm Hg 54%
21:00 +27°C° 0.1 mm 3 m/s 751 mm Hg 59%
22:00 +26°C° 0 mm 3 m/s 751 mm Hg 60%
23:00 +26°C° 0 mm 2 m/s 751 mm Hg 62%

Dopodomani, 16 Giugno, Mercoledi

Tempo Temperatura Precipitazioni Vento Pressione Umidità
00:00 +25°C° 0 mm 2 m/s 750 mm Hg 64%
01:00 +25°C° 0 mm 2 m/s 751 mm Hg 65%
02:00 +24°C° 0 mm 2 m/s 751 mm Hg 65%
03:00 +24°C° 0 mm 2 m/s 751 mm Hg 66%
04:00 +24°C° 0 mm 2 m/s 751 mm Hg 65%
05:00 +24°C° 0 mm 2 m/s 751 mm Hg 64%
06:00 +25°C° 0 mm 2 m/s 751 mm Hg 63%
07:00 +26°C° 0 mm 3 m/s 751 mm Hg 57%
08:00 +28°C° 0 mm 4 m/s 750 mm Hg 51%
09:00 +29°C° 0 mm 5 m/s 750 mm Hg 45%
10:00 +32°C° 0 mm 5 m/s 750 mm Hg 41%
11:00 +33°C° 0 mm 6 m/s 750 mm Hg 38%
12:00 +34°C° 0 mm 6 m/s 749 mm Hg 34%
13:00 +35°C° 0 mm 7 m/s 749 mm Hg 33%
14:00 +35°C° 0 mm 7 m/s 749 mm Hg 32%
15:00 +37°C° 0 mm 8 m/s 748 mm Hg 31%
16:00 +35°C° 0 mm 8 m/s 748 mm Hg 34%
17:00 +34°C° 0 mm 7 m/s 749 mm Hg 37%
18:00 +33°C° 0 mm 7 m/s 749 mm Hg 40%
19:00 +30°C° 0 mm 6 m/s 749 mm Hg 44%
20:00 +28°C° 0 mm 5 m/s 749 mm Hg 49%
21:00 +27°C° 0 mm 4 m/s 749 mm Hg 53%
22:00 +26°C° 0 mm 4 m/s 749 mm Hg 58%
23:00 +25°C° 0 mm 4 m/s 749 mm Hg 62%

17 Giugno, Giovedi

Tempo Temperatura Precipitazioni Vento Pressione Umidità
00:00 +24°C° 0 mm 3 m/s 749 mm Hg 66%
01:00 +24°C° 0 mm 3 m/s 748 mm Hg 69%
02:00 +24°C° 0 mm 3 m/s 748 mm Hg 71%
03:00 +24°C° 0 mm 3 m/s 748 mm Hg 73%
04:00 +24°C° 0 mm 3 m/s 748 mm Hg 72%
05:00 +24°C° 0 mm 3 m/s 748 mm Hg 71%
06:00 +25°C° 0 mm 3 m/s 748 mm Hg 71%
07:00 +26°C° 0 mm 3 m/s 748 mm Hg 63%
08:00 +28°C° 0 mm 3 m/s 748 mm Hg 54%
09:00 +30°C° 0 mm 3 m/s 748 mm Hg 46%
10:00 +31°C° 0.1 mm 2 m/s 748 mm Hg 43%
11:00 +32°C° 0.1 mm 2 m/s 748 mm Hg 39%
12:00 +33°C° 0.1 mm 1 m/s 748 mm Hg 35%
13:00 +35°C° 0.1 mm 2 m/s 748 mm Hg 34%
14:00 +36°C° 0.1 mm 3 m/s 748 mm Hg 32%
15:00 +37°C° 0.1 mm 4 m/s 748 mm Hg 30%
16:00 +36°C° 0 mm 5 m/s 748 mm Hg 34%
17:00 +35°C° 0 mm 6 m/s 749 mm Hg 38%
18:00 +34°C° 0 mm 6 m/s 749 mm Hg 42%
19:00 +32°C° 0.1 mm 7 m/s 750 mm Hg 50%
20:00 +29°C° 0.1 mm 8 m/s 750 mm Hg 58%
21:00 +27°C° 0.1 mm 8 m/s 751 mm Hg 66%
22:00 +26°C° 0 mm 8 m/s 751 mm Hg 66%
23:00 +24°C° 0 mm 9 m/s 751 mm Hg 67%

18 Giugno, Venerdi

Tempo Temperatura Precipitazioni Vento Pressione Umidità
00:00 +24°C° 0 mm 9 m/s 751 mm Hg 68%
01:00 +23°C° 0 mm 9 m/s 752 mm Hg 73%
02:00 +22°C° 0 mm 9 m/s 752 mm Hg 78%
03:00 +22°C° 0 mm 9 m/s 753 mm Hg 82%
04:00 +22°C° 0 mm 9 m/s 753 mm Hg 82%
05:00 +22°C° 0 mm 9 m/s 754 mm Hg 81%
06:00 +22°C° 0 mm 8 m/s 754 mm Hg 80%
07:00 +24°C° 0 mm 8 m/s 754 mm Hg 71%
08:00 +27°C° 0 mm 7 m/s 754 mm Hg 63%
09:00 +29°C° 0 mm 6 m/s 754 mm Hg 54%
10:00 +30°C° 0 mm 6 m/s 754 mm Hg 51%
11:00 +32°C° 0 mm 7 m/s 754 mm Hg 47%
12:00 +33°C° 0 mm 7 m/s 754 mm Hg 44%
13:00 +30°C° 0.3 mm 6 m/s 755 mm Hg 48%
14:00 +29°C° 0.3 mm 6 m/s 755 mm Hg 52%
15:00 +28°C° 0.3 mm 5 m/s 755 mm Hg 57%
16:00 +28°C° 0.4 mm 5 m/s 756 mm Hg 57%
17:00 +28°C° 0.4 mm 5 m/s 756 mm Hg 57%
18:00 +29°C° 0.4 mm 5 m/s 756 mm Hg 57%
19:00 +28°C° 0.1 mm 4 m/s 757 mm Hg 58%
20:00 +27°C° 0.1 mm 4 m/s 757 mm Hg 60%
21:00 +25°C° 0.1 mm 3 m/s 757 mm Hg 61%
22:00 +25°C° 0 mm 3 m/s 758 mm Hg 62%
23:00 +25°C° 0 mm 3 m/s 758 mm Hg 63%

19 Giugno, Sabato

Tempo Temperatura Precipitazioni Vento Pressione Umidità
00:00 +25°C° 0 mm 2 m/s 758 mm Hg 63%
01:00 +25°C° 0 mm 3 m/s 758 mm Hg 63%
02:00 +25°C° 0 mm 3 m/s 758 mm Hg 63%
03:00 +24°C° 0 mm 3 m/s 758 mm Hg 63%
04:00 +24°C° 0 mm 3 m/s 758 mm Hg 62%
05:00 +23°C° 0 mm 4 m/s 758 mm Hg 62%
06:00 +23°C° 0 mm 4 m/s 759 mm Hg 61%
07:00 +26°C° 0 mm 5 m/s 759 mm Hg 53%
08:00 +28°C° 0 mm 6 m/s 759 mm Hg 45%
09:00 +29°C° 0 mm 7 m/s 759 mm Hg 37%
10:00 +31°C° 0 mm 8 m/s 759 mm Hg 35%
11:00 +32°C° 0 mm 9 m/s 758 mm Hg 33%
12:00 +32°C° 0 mm 9 m/s 758 mm Hg 32%
13:00 +32°C° 0 mm 9 m/s 758 mm Hg 32%
14:00 +32°C° 0 mm 9 m/s 758 mm Hg 33%
15:00 +31°C° 0 mm 9 m/s 758 mm Hg 34%
16:00 +29°C° 0 mm 9 m/s 758 mm Hg 36%
17:00 +28°C° 0 mm 8 m/s 758 mm Hg 39%
18:00 +27°C° 0 mm 8 m/s 758 mm Hg 41%
19:00 +26°C° 0 mm 7 m/s 758 mm Hg 45%
20:00 +24°C° 0 mm 6 m/s 759 mm Hg 48%
21:00 +22°C° 0 mm 5 m/s 759 mm Hg 51%
22:00 +22°C° 0 mm 5 m/s 759 mm Hg 55%
23:00 +21°C° 0 mm 4 m/s 758 mm Hg 58%
Mostrare altro

Abbiamo bisogno del tuo consenso

Meteoprog e i nostri fornitori di servizi possono memorizzare e accedere a dati personali come cookie, identificatori di dispositivi o altre tecnologie simili sul tuo dispositivo e possono elaborare tali dati per personalizzare i contenuti e gli annunci, nonché fornire funzionalità dei social media e analizzarne il traffico.

  • Archiviare e/o accedere alle informazioni sul tuo dispositivo

    Cookie, identificatori di dispositivi o altre informazioni possono essere memorizzati o resi accessibili sul tuo dispositivo per le finalità sopra indicate.

  • Annunci e contenuti personalizzati, misurazione di annunci e contenuti, approfondimenti sul pubblico e sviluppo di prodotti

    Gli annunci e i contenuti possono essere personalizzati in base a un profilo. È possibile aggiungere più dati per personalizzare meglio annunci e contenuti. È possibile misurare il rendimento degli annunci e dei contenuti. È possibile ricavare informazioni sul pubblico che ha visto gli annunci e i contenuti. Tali dati possono essere utilizzati per sviluppare o migliorare l'esperienza, i sistemi e il software dell'utente.

Cliccando su “Accetto”, acconsenti all'uso di cookie, identificatori di dispositivo, web beacon o altre tecnologie simili. Puoi modificare le impostazioni nel browser del tuo dispositivo.

Per determinati scopi, è possibile fare affidamento su interessi legali, piuttosto che sul consenso. Puoi approfondire questo argomento consultando la nostra Informativa sulla privacy e sui cookie.